Weather History for South Pass, WY

Change the Weather History Date:

Friday, August 23, 2013

  Actual Average (KLND) Record (KLND)
Temperature  
Mean Temperature 64 °F 68 °F  
Max Temperature 73 °F 84 °F 95 °F (1961)
Min Temperature 55 °F 53 °F 33 °F (1899)
Degree Days  
Heating Degree Days 1 1  
Month to date heating degree days 11  
Since 1 June heating degree days 153  
Since 1 July heating degree days 27  
Cooling Degree Days 0 4  
Month to date cooling degree days 139  
Year to date cooling degree days 416  
Since 1 June cooling degree days 411  
Growing Degree Days 14 (Base 50)    
Moisture  
Dew Point 39 °F    
Average Humidity 42    
Maximum Humidity 72    
Minimum Humidity 22    
Precipitation  
Precipitation 0.00 in 0.02 in 0.38 in (1987)
Month to date precipitation 0.48  
Year to date precipitation 8.75  
Snow  
Snow 0.00 in 0.00 in - ()
Month to date snowfall 0.0  
Since 1 June snowfall 0.1  
Since 1 July snowfall 0.0  
Snow Depth -    
Sea Level Pressure  
Sea Level Pressure 30.22 in    
Wind  
Wind Speed 7 mph (WSW)    
Max Wind Speed 25 mph    
Max Gust Speed 37 mph    
Visibility 10 miles    
Events Thunderstorm    
T = Trace of Precipitation, MM = Missing Value Source: NWS Daily Summary

Daily Weather History Graph

Daily Weather History Graph

Search for Another Location

Airport:

Trip Planner

Search our weather history database for the weather conditions in past years. The results will help you decide how hot, cold, wet, or windy it might be!

Date:

Astronomy

Aug. 23, 2013 Rise Set
Actual Time 6:30 AM MDT 8:03 PM MDT
Civil Twilight 6:01 AM MDT 8:33 PM MDT
Nautical Twilight 5:25 AM MDT 9:08 PM MDT
Astronomical Twilight 4:47 AM MDT 9:46 PM MDT
Moon 9:18 PM MDT (8/23) 9:34 AM MDT (8/23)
Length of Visible Light 14h 31m
Length of Day
13h 32m
Waning Gibbous, 91% of the Moon is Illuminated
Aug 23
Waning Gibbous
Aug 28
Last Quarter
Sep 5
New
Sep 12
First Quarter
Sep 19
Full

Hourly Weather History & Observations

Time (MDT) Temp. Dew Point Humidity Pressure Visibility Wind Dir Wind Speed Gust Speed Precip Events Conditions
12:15 AM 60.8 °F 39.2 °F 45% 30.28 in 10.0 mi West 4.6 mph - N/A   Clear
12:35 AM 60.8 °F 39.2 °F 45% 30.28 in 10.0 mi West 4.6 mph - N/A   Clear
12:55 AM 60.8 °F 39.2 °F 45% 30.28 in 10.0 mi WSW 4.6 mph - N/A   Clear
1:15 AM 60.8 °F 39.2 °F 45% 30.29 in 10.0 mi West 5.8 mph - N/A   Scattered Clouds
1:35 AM 60.8 °F 39.2 °F 45% 30.28 in 10.0 mi WSW 5.8 mph - N/A   Mostly Cloudy
1:55 AM 60.8 °F 39.2 °F 45% 30.28 in 10.0 mi WSW 6.9 mph - N/A   Overcast
2:15 AM 60.8 °F 39.2 °F 45% 30.28 in 10.0 mi WSW 6.9 mph - N/A   Overcast
2:35 AM 60.8 °F 39.2 °F 45% 30.27 in 10.0 mi WSW 5.8 mph - N/A   Overcast
2:55 AM 60.8 °F 41.0 °F 48% 30.27 in 10.0 mi WSW 6.9 mph - N/A   Mostly Cloudy
3:15 AM 60.8 °F 41.0 °F 48% 30.27 in 10.0 mi WSW 6.9 mph - N/A   Overcast
3:35 AM 60.8 °F 41.0 °F 48% 30.27 in 10.0 mi WSW 6.9 mph - N/A   Overcast
3:55 AM 60.8 °F 41.0 °F 48% 30.26 in 10.0 mi WSW 8.1 mph - N/A   Mostly Cloudy
4:15 AM 60.8 °F 41.0 °F 48% 30.25 in 10.0 mi West 3.5 mph - N/A   Mostly Cloudy
4:35 AM 59.0 °F 41.0 °F 51% 30.25 in 10.0 mi WSW 6.9 mph - N/A   Scattered Clouds
4:55 AM 59.0 °F 41.0 °F 51% 30.25 in 10.0 mi West 4.6 mph - N/A   Clear
5:15 AM 60.8 °F 41.0 °F 48% 30.25 in 10.0 mi West 3.5 mph - N/A Thunderstorm Clear
5:35 AM 60.8 °F 41.0 °F 48% 30.25 in 10.0 mi WSW 4.6 mph - N/A   Clear
5:55 AM 55.4 °F 41.0 °F 58% 30.25 in 10.0 mi West 5.8 mph - N/A   Clear
6:15 AM 57.2 °F 41.0 °F 55% 30.25 in 10.0 mi West 5.8 mph - N/A   Clear
6:35 AM 57.2 °F 41.0 °F 55% 30.25 in 10.0 mi WNW 6.9 mph - N/A   Clear
6:55 AM 59.0 °F 41.0 °F 51% 30.25 in 10.0 mi West 4.6 mph - N/A   Clear
7:15 AM 57.2 °F 41.0 °F 55% 30.25 in 10.0 mi West 6.9 mph - N/A   Scattered Clouds
7:35 AM 60.8 °F 39.2 °F 45% 30.25 in 10.0 mi West 6.9 mph - N/A   Clear
7:55 AM 62.6 °F 39.2 °F 42% 30.25 in 10.0 mi West 5.8 mph - N/A   Scattered Clouds
8:15 AM 62.6 °F 39.2 °F 42% 30.25 in 10.0 mi WSW 6.9 mph - N/A   Mostly Cloudy
8:35 AM 64.4 °F 37.4 °F 37% 30.25 in 10.0 mi SW 3.5 mph - N/A   Scattered Clouds
8:55 AM 64.4 °F 39.2 °F 40% 30.25 in 10.0 mi WSW 5.8 mph - N/A   Clear
9:15 AM 66.2 °F 39.2 °F 37% 30.25 in 10.0 mi SW 4.6 mph - N/A   Clear
9:35 AM 68.0 °F 37.4 °F 33% 30.25 in 10.0 mi SW 5.8 mph - N/A   Clear
9:55 AM 69.8 °F 37.4 °F 31% 30.24 in 10.0 mi SSW 5.8 mph - N/A   Clear
10:15 AM 69.8 °F 35.6 °F 28% 30.24 in 10.0 mi WSW 5.8 mph - N/A   Clear
10:35 AM 69.8 °F 35.6 °F 28% 30.24 in 10.0 mi SW 8.1 mph - N/A   Clear
10:55 AM 69.8 °F 35.6 °F 28% 30.25 in 10.0 mi SSW 6.9 mph - N/A   Clear
11:15 AM 69.8 °F 35.6 °F 28% 30.25 in 10.0 mi SW 9.2 mph - N/A   Clear
11:35 AM 69.8 °F 35.6 °F 28% 30.25 in 10.0 mi SSW 9.2 mph - N/A   Clear
11:55 AM 69.8 °F 35.6 °F 28% 30.24 in 10.0 mi SSW 5.8 mph - N/A   Clear
12:15 PM 69.8 °F 35.6 °F 28% 30.25 in 10.0 mi SSW 8.1 mph - N/A   Clear
12:35 PM 69.8 °F 35.6 °F 28% 30.24 in 10.0 mi SW 6.9 mph - N/A   Clear
12:55 PM 71.6 °F 33.8 °F 25% 30.23 in 10.0 mi SSW 9.2 mph 16.1 mph N/A   Clear
1:15 PM 71.6 °F 35.6 °F 27% 30.23 in 10.0 mi SSW 9.2 mph - N/A   Clear
1:35 PM 71.6 °F 35.6 °F 27% 30.22 in 10.0 mi SW 11.5 mph 17.3 mph N/A   Clear
1:55 PM 71.6 °F 35.6 °F 27% 30.21 in 10.0 mi SW 6.9 mph - N/A   Clear
2:15 PM 73.4 °F 33.8 °F 23% 30.20 in 10.0 mi SW 11.5 mph - N/A   Clear
2:35 PM 73.4 °F 32.0 °F 22% 30.20 in 10.0 mi SW 12.7 mph 16.1 mph N/A   Clear
2:55 PM 73.4 °F 32.0 °F 22% 30.19 in 10.0 mi SW 11.5 mph 18.4 mph N/A   Clear
3:15 PM 73.4 °F 32.0 °F 22% 30.18 in 10.0 mi SW 10.4 mph 20.7 mph N/A   Clear
3:35 PM 71.6 °F 33.8 °F 25% 30.18 in 10.0 mi SW 11.5 mph 16.1 mph N/A   Clear
3:55 PM 71.6 °F 32.0 °F 23% 30.18 in 10.0 mi SW 11.5 mph 16.1 mph N/A   Scattered Clouds
4:15 PM 71.6 °F 33.8 °F 25% 30.18 in 10.0 mi SW 12.7 mph 18.4 mph N/A   Scattered Clouds
4:35 PM 69.8 °F 35.6 °F 28% 30.18 in 10.0 mi WSW 17.3 mph 23.0 mph N/A   Scattered Clouds
4:55 PM 60.8 °F 44.6 °F 55% 30.18 in 10.0 mi West 25.3 mph 36.8 mph N/A   Mostly Cloudy
5:15 PM 62.6 °F 44.6 °F 52% 30.17 in 10.0 mi West 19.6 mph 28.8 mph N/A   Scattered Clouds
5:35 PM 62.6 °F 44.6 °F 52% 30.17 in 10.0 mi West 15.0 mph 27.6 mph N/A   Scattered Clouds
5:55 PM 64.4 °F 39.2 °F 40% 30.18 in 10.0 mi WSW 15.0 mph 21.9 mph N/A   Mostly Cloudy
6:15 PM 62.6 °F 41.0 °F 45% 30.18 in 10.0 mi WSW 18.4 mph 24.2 mph N/A   Overcast
6:35 PM 62.6 °F 41.0 °F 45% 30.18 in 10.0 mi WSW 18.4 mph 21.9 mph N/A   Overcast
6:55 PM 62.6 °F 39.2 °F 42% 30.16 in 10.0 mi WSW 6.9 mph - N/A   Mostly Cloudy
7:15 PM 62.6 °F 39.2 °F 42% 30.16 in 10.0 mi WSW 4.6 mph - N/A   Mostly Cloudy
7:35 PM 62.6 °F 39.2 °F 42% 30.16 in 10.0 mi WSW 4.6 mph - N/A   Scattered Clouds
7:55 PM 62.6 °F 41.0 °F 45% 30.15 in 10.0 mi SW 5.8 mph - N/A   Scattered Clouds
8:15 PM 62.6 °F 41.0 °F 45% 30.16 in 10.0 mi WSW 5.8 mph - N/A   Scattered Clouds
8:35 PM 60.8 °F 41.0 °F 48% 30.16 in 10.0 mi WSW 8.1 mph - N/A   Mostly Cloudy
8:55 PM 60.8 °F 41.0 °F 48% 30.17 in 10.0 mi WSW 9.2 mph - N/A   Scattered Clouds
9:15 PM 60.8 °F 39.2 °F 45% 30.18 in 10.0 mi SW 8.1 mph - N/A   Scattered Clouds
9:35 PM 59.0 °F 44.6 °F 59% 30.19 in 10.0 mi SSW 8.1 mph - N/A   Clear
9:55 PM 57.2 °F 46.4 °F 67% 30.19 in 10.0 mi SW 9.2 mph - N/A   Clear
10:15 PM 57.2 °F 46.4 °F 67% 30.19 in 10.0 mi WSW 8.1 mph - N/A   Clear
10:35 PM 55.4 °F 46.4 °F 72% 30.19 in 10.0 mi WSW 6.9 mph - N/A   Clear
10:55 PM 55.4 °F 46.4 °F 72% 30.18 in 10.0 mi West 8.1 mph - N/A   Scattered Clouds
11:35 PM 59.0 °F 42.8 °F 55% 30.17 in 10.0 mi WSW 4.6 mph - N/A   Clear
11:55 PM 55.4 °F 44.6 °F 67% 30.18 in 10.0 mi SW 5.8 mph - N/A   Clear